Location: Castelletto
(45.7167°N, 8.6333°E)
Time: 06:18:25
(UTC+00:00)

Daily predictions for brighter satellites

Satellite Brightness Start Highest point End
(mag) Time Altitude Azimuth Time Altitude Azimuth Time Altitude Azimuth
Cosmos 1833 Rocket 2.9 18:56:54 10° SSW 19:02:31 80° WNW 19:08:11 10° NNE
USA 238 DEB 3.8 18:59:30 10° SSW 19:05:49 51° ESE 19:12:24 10° NE
USA 238 3.8 18:59:37 10° SSW 19:05:55 50° ESE 19:12:29 10° NE
Cosmos 1697 Rocket 3.0 19:01:03 10° NNW 19:06:39 70° WSW 19:12:13 10° SSE
SPOT 3 Rocket 4.1 19:02:05 10° SE 19:06:58 43° ENE 19:11:53 10° N
IRIDIUM 114 4.3 19:01:54 10° S 19:07:05 73° E 19:12:18 10° N
Cosmos 1867 3.6 19:02:31 10° SSW 19:07:56 76° ESE 19:13:25 10° NE
MOS 1 Rocket 3.8 19:03:14 10° N 19:08:41 79° WNW 19:13:53 10° SSW
CENTAUR R/B 3.1 19:04:38 10° S 19:09:41 32° ESE 19:15:30 10° NE
Cosmos 1666 Rocket 3.7 19:05:53 10° SSE 19:10:02 49° E 19:14:15 10° NNE
Cosmos 1954 Rocket 4.2 19:07:33 10° S 19:12:41 52° ESE 19:17:51 10° NNE
DMSP B5D2-2 4.1 19:09:51 10° NNE 19:15:03 61° E 19:20:14 10° S
IRIDIUM 103 4.4 19:11:01 10° S 19:16:14 88° E 19:21:29 10° N
FREGAT/IRIS 2.6 19:14:10 10° S 19:16:47 65° W 19:19:24 10° NNW
Cosmos 1821 Rocket 4.0 19:11:20 10° S 19:17:30 84° E 19:23:48 10° N
Ariane Rocket 3.3 19:12:46 10° S 19:17:48 72° WSW 19:22:52 10° NNW
Cosmos 405 Rocket 4.1 19:15:24 10° SE 19:18:02 19° E 19:20:42 10° NE
Intercosmos 25 2.9 19:15:37 10° N 19:19:18 89° ESE 19:22:27 10° S
Cosmos 1805 Rocket 4.2 19:16:15 10° SSW 19:20:39 62° W 19:25:07 10° N
Cosmos 1812 3.4 19:17:03 10° NNW 19:20:50 56° W 19:24:35 10° S
Cosmos 407 Rocket 4.1 19:17:48 10° SSW 19:23:05 65° WNW 19:28:20 10° NNE
SJ-6B 3.2 19:21:48 10° S 19:25:48 67° WSW 19:29:43 10° NNW
Cosmos 1190 Rocket 4.3 19:22:00 10° SSW 19:27:16 73° WNW 19:32:37 10° NNE
deb Kosmos-1763 4.3 19:24:57 10° SSW 19:28:34 71° WNW 19:32:13 10° NNE
NOSS 2 (A) 3.9 19:26:03 10° NW 19:28:36 86° NE 19:30:21 16° SE
Cosmos 1763 Rocket 4.4 19:24:10 10° N 19:29:03 35° ENE 19:33:12 13° ESE
Cosmos 1140 Rocket 3.8 19:23:52 10° SSW 19:29:06 73° WNW 19:34:23 10° NNE
Cosmos 1437 Rocket 4.4 19:27:27 10° NNE 19:30:03 17° ENE 19:31:55 13° ESE
Resurs 1-3 3.6 19:26:30 10° SSE 19:30:52 70° ENE 19:35:15 10° N
OBJECT-B 0.8 19:30:12 10° SSE 19:33:29 82° ENE 19:36:47 10° N
Cosmos 2084 Rocket 3.9 19:30:49 10° S 19:34:38 36° ESE 19:38:33 10° NE
Cosmos 1633 Rocket 3.0 19:32:27 10° S 19:36:52 80° E 19:41:18 10° N
Cosmos 1184 Rocket 2.7 19:34:29 10° S 19:37:45 65° E 19:41:02 10° NNE
Cosmos 921 Rocket 2.9 19:37:27 10° NNW 19:41:39 67° ENE 19:45:04 15° SSE
Cosmos 2123 Rocket 4.0 19:36:39 10° N 19:42:55 81° E 19:49:12 10° S
Cosmos 1535 Rocket 4.4 19:37:11 10° S 19:43:17 76° E 19:49:24 10° NNE
Meteor 1-27 Rocket 4.5 19:42:21 10° NNW 19:48:11 59° W 19:53:59 10° S
Cosmos 1605 Rocket 4.0 19:45:45 10° S 19:51:44 60° E 19:57:42 10° NNE
Okean 1 3.8 19:50:06 10° N 19:53:58 42° ENE 19:56:09 22° SE
CZ-2C R/B 3.3 19:49:32 10° N 19:54:37 58° WNW 19:59:46 10° SSW
NOSS 3-2 (A) 3.5 19:50:15 10° SW 19:55:56 80° NW 20:02:31 10° NE
USA 267 3.7 19:52:19 10° ENE 19:58:17 37° SE 20:04:13 10° SSW
Cosmos 2219 Rocket 4.4 19:55:49 10° N 19:58:35 14° NE 20:01:21 10° ENE
Cosmos 540 Rocket 4.4 19:57:16 10° N 20:01:59 34° ENE 20:04:39 21° ESE
SL-16 R/B 2.4 19:57:19 10° NNW 20:02:56 57° ENE 20:06:27 23° SE
SL-4 R/B 3.4 19:59:41 10° WNW 20:03:22 34° N 20:06:48 10° ENE
BREEZE-M DEB (TANK) 3.1 20:01:40 10° W 20:04:19 53° N 20:10:54 10° ENE
SL-27 R/B 2.8 20:04:28 31° SE 20:05:19 38° ESE 20:08:25 10° NE
NOSS 3-2 (C) 3.3 20:00:55 10° SSW 20:06:34 80° SE 20:13:06 10° NE
Cosmos 2242 Rocket 3.6 20:02:16 10° N 20:06:40 60° E 20:09:08 24° SSE
Cosmos 1470 Rocket 3.5 20:02:17 10° S 20:06:42 88° WNW 20:11:05 10° N
Cosmos 2082 Rocket 3.6 20:05:53 10° SW 20:11:14 42° NW 20:16:37 10° NNE
BREEZE-M DEB (TANK) 2.9 20:09:27 10° WNW 20:11:52 35° N 20:12:31 26° NE
ERS-1 Rocket 3.7 20:16:14 26° ESE 20:18:20 38° ENE 20:22:58 10° N
Meteor 1-14 Rocket 4.4 20:13:21 13° S 20:18:28 62° E 20:24:21 10° NNE
Cosmos 2322 Rocket 2.3 20:14:36 10° NNW 20:20:17 64° ENE 20:23:15 29° SE
Cosmos 1850 Rocket 3.9 20:18:14 10° SSW 20:23:32 84° ESE 20:28:49 10° NNE
Meteor 1-25 Rocket 4.4 20:19:44 10° SSW 20:25:17 72° WNW 20:30:58 10° N
Cosmos 1500 3.8 20:25:36 35° E 20:25:36 35° E 20:29:01 10° NNE
SPOT 1/Viking Rocket 3.6 20:23:32 29° SE 20:26:12 66° ENE 20:31:24 10° N
Cosmos 841 Rocket 3.7 20:22:36 10° NNW 20:27:46 56° ENE 20:29:56 33° SE
USA 32 4.4 20:22:45 10° SSW 20:27:55 66° W 20:33:09 10° N
Terra 2.9 20:27:56 26° E 20:29:14 30° ENE 20:33:22 10° N
Cosmos 2360 Rocket 2.8 20:23:59 10° NNW 20:29:24 43° NE 20:31:48 28° ESE
USA 276 1.9 20:26:41 10° WNW 20:29:52 89° SW 20:30:10 71° ESE
Meteor 1-18 Rocket 4.2 20:24:47 10° NNW 20:30:23 84° W 20:33:52 24° S
X-37B 1.2 20:27:29 10° W 20:30:22 42° SSW 20:30:22 42° SSW
IGS 5A 3.4 20:29:39 34° SSE 20:31:24 89° WSW 20:35:35 10° NNW
Okean 3 4.5 20:27:45 10° N 20:31:35 30° ENE 20:32:07 29° E
ATLAS 3B R/B 2.8 20:25:27 10° S 20:31:42 46° ESE 20:37:57 10° NE
Cosmos 1238 Rocket 3.2 20:30:32 19° SW 20:32:21 42° WNW 20:35:16 10° N
USA 234 3.9 20:29:00 17° E 20:33:55 50° NNE 20:40:11 10° NW
Cosmos 1666 4.5 20:37:36 18° ENE 20:37:36 18° ENE 20:39:19 10° NE
Cosmos 468 Rocket 4.4 20:31:30 10° NNW 20:36:43 59° WSW 20:39:43 25° S
Cosmos 1980 Rocket 4.0 20:33:22 10° NW 20:37:52 25° WSW 20:42:19 10° SSW
Resurs 01 Rocket 3.0 20:34:56 13° SSW 20:38:28 35° W 20:42:34 10° NNW
Cosmos 44 3.3 20:33:41 10° NW 20:38:40 88° SW 20:40:36 39° SSE
Iridium 4 Rocket 3.8 20:38:44 32° E 20:38:44 32° E 20:42:26 10° NNE
Lacrosse 5 2.4 20:35:06 10° WNW 20:39:59 48° SW 20:41:50 33° S
Cosmos 1602 4.4 20:37:46 15° SSW 20:40:48 53° W 20:44:41 10° N
CARTOSAT-1 3.7 20:40:31 45° ESE 20:41:28 57° ENE 20:45:44 10° N
Cosmos 1153 Rocket 4.4 20:36:52 14° S 20:42:13 88° W 20:48:28 10° N
GP-B 4.2 20:40:44 10° N 20:44:58 44° W 20:48:37 13° SSW
CZ-4B DEB 4.4 20:46:38 66° ENE 20:46:38 66° ENE 20:49:50 10° N
Cosmos 1933 Rocket 4.5 20:43:03 10° SSW 20:47:18 48° WNW 20:51:38 10° N
Cosmos 2061 Rocket 4.3 20:50:45 37° SE 20:52:22 45° E 20:58:13 10° NNE
Cosmos 405 Rocket 4.4 20:50:28 10° SW 20:53:47 31° WNW 20:57:11 10° N
Spot 2 Rocket 3.9 20:51:17 29° S 20:53:48 60° WSW 20:58:51 10° NNW
Cosmos 1814 Rocket 3.9 20:50:13 10° NNW 20:55:28 77° ENE 20:56:56 48° SE
COSMOS 2428 4.1 20:50:53 10° N 20:55:42 27° NE 20:57:48 21° E
Cosmos 1802 Rocket 4.1 20:54:58 38° SSE 20:57:19 59° E 21:03:32 10° NNE
Cosmos 1515 4.5 20:55:01 10° NNW 20:58:42 47° W 20:59:36 38° SW
Cosmos 1869 Rocket 3.5 20:57:44 50° S 20:58:53 90° WSW 21:03:24 10° N
Cosmos 2237 Rocket 4.4 20:56:43 10° N 20:59:36 14° NE 21:02:29 10° ENE
CENTAUR R/B 3.2 20:53:58 10° WSW 20:59:53 57° NW 21:06:58 10° NE
Okean 1-7 3.5 20:56:22 10° NNW 21:00:35 54° W 21:01:51 38° SSW
Cosmos 1437 Rocket 3.9 21:02:57 10° NNW 21:06:26 35° W 21:07:19 31° SW
Cosmos 1570 Rocket 4.3 21:08:12 10° NNW 21:13:29 61° WSW 21:14:58 44° SSW
Cosmos 2333 Rocket 3.0 21:08:29 10° NNW 21:13:55 41° NE 21:15:19 35° E
ATLAS 5 CENTAUR R/B 2.6 21:11:11 10° NNW 21:14:01 53° NE 21:14:58 45° E
SPOT 5 2.6 21:17:39 65° SW 21:18:04 71° WSW 21:22:30 10° NNW
Cosmos 1066 Rocket 4.4 21:15:19 10° N 21:20:51 53° ENE 21:21:30 50° E
Meteor 1-5 Rocket 4.4 21:18:36 35° SSW 21:21:15 79° W 21:27:11 10° N
Cosmos 2208 Rocket 4.3 21:19:50 10° NNW 21:24:58 57° WSW 21:25:57 49° SSW
Cosmos 1733 Rocket 3.5 21:29:41 51° NE 21:29:41 51° NE 21:33:16 10° NNE
ERBS 4.4 21:27:48 10° NNW 21:30:13 22° NNE 21:30:13 22° NNE
Meteor 1-11 Rocket 3.6 21:31:46 58° S 21:32:58 88° E 21:38:48 10° N
Cosmos 968 Rocket 4.0 21:37:25 43° ENE 21:37:25 43° ENE 21:41:21 10° NNE
Lacrosse 4 Rocket 1.9 21:37:37 54° NNE 21:37:37 54° NNE 21:40:55 10° NNE
Tsikada Rocket 3.9 21:31:21 10° N 21:37:41 74° E 21:38:46 60° SE
USA 267 3.4 21:35:05 10° NE 21:41:37 75° NW 21:48:08 10° WSW
SL-4 R/B 3.1 21:39:57 10° WNW 21:42:59 37° N 21:42:59 37° N
Cosmos 2219 Rocket 2.3 21:38:11 10° NNW 21:43:49 59° ENE 21:44:23 56° E
SL-16 R/B 3.8 21:42:12 10° NW 21:46:36 23° WSW 21:48:20 20° SW
Cosmos 1242 Rocket 4.0 21:48:35 10° NNW 21:50:53 37° NNW 21:50:53 37° NNW
Meteor 1-23 Rocket 4.1 21:50:56 10° NNW 21:56:48 84° W 21:57:14 76° SSW
Cosmos 1725 Rocket 4.1 21:55:18 53° SSW 21:56:50 74° W 22:03:13 10° N
ERS-1 Rocket 4.3 21:56:14 27° WSW 21:57:11 29° W 22:01:33 10° NW
Cosmos 2322 3.6 21:51:31 10° NNW 21:57:13 80° WSW 21:57:25 78° SW
Spot 4 4.4 21:58:19 49° NE 21:58:19 49° NE 22:02:31 10° N
Cosmos 1536 4.0 22:03:04 40° NW 22:03:04 40° NW 22:06:08 10° N
Cosmos 836 Rocket 4.4 21:57:15 10° NNW 22:02:12 81° NNW 22:02:12 81° NNW
Cosmos 2322 Rocket 3.9 21:59:38 10° NW 22:03:48 21° W 22:05:03 20° WSW
Cosmos 1378 Rocket 4.2 22:01:24 10° N 22:04:52 54° N 22:04:52 54° N
Terra 3.0 22:06:49 34° W 22:06:53 34° W 22:11:14 10° NNW
Cosmos 2333 4.4 22:06:23 10° NNW 22:12:06 62° WSW 22:12:07 62° WSW
Cosmos 2360 Rocket 3.3 22:08:16 10° NW 22:13:15 32° WSW 22:13:33 32° WSW
SL-16 R/B 4.2 22:11:26 10° N 22:15:22 19° NE 22:17:41 15° ENE
USA 234 3.1 22:16:20 66° SSW 22:16:48 68° SW 22:23:20 10° NW
ATLAS 3B R/B 3.6 22:16:08 10° WSW 22:22:24 44° NW 22:28:47 10° NNE
MOS 1-B Rocket 3.8 22:17:16 10° NNE 22:22:52 77° WNW 22:23:10 74° WSW
Cosmos 1354 Rocket 4.4 22:23:58 57° NE 22:23:58 57° NE 22:28:16 10° NNE
Cosmos 1975 Rocket 4.3 22:24:17 10° N 22:27:17 37° NNE 22:27:17 37° NNE
Cosmos 2297 Rocket 3.7 22:32:11 25° ENE 22:32:11 25° ENE 22:35:12 10° NE
Meteor 1-21 4.5 22:27:34 10° N 22:33:00 61° ENE 22:33:00 61° ENE
Cosmos 2233 Rocket 4.3 22:34:08 54° WSW 22:35:03 59° WNW 22:41:20 10° N
Thor Agena Rocket 3.8 22:30:43 10° NNE 22:35:03 65° NNE 22:35:03 65° NNE
Cosmos 1980 4.0 22:31:29 10° NNW 22:36:58 58° NE 22:36:58 58° NE
Timation 2 Rocket 4.2 22:39:51 56° ENE 22:39:51 56° ENE 22:44:51 10° NNE
COSMOS 2428 3.1 22:34:44 10° NNW 22:39:48 57° W 22:39:48 57° W
Cosmos 44 Rocket 4.4 22:39:32 10° NW 22:42:56 39° WNW 22:42:56 39° WNW
Cosmos 2219 4.2 22:46:31 37° ENE 22:46:31 37° ENE 22:50:15 10° NE
Cosmos 2237 Rocket 2.5 22:39:16 10° NNW 22:44:34 61° NE 22:44:34 61° NE
Cosmos 1464 Rocket 4.0 22:46:12 67° ENE 22:46:12 67° ENE 22:52:01 10° NNE
NOSS 0 Rocket 3.9 22:45:50 10° NNW 22:51:50 79° WNW 22:51:50 79° WNW
Nadezhda 4 Rocket 4.2 22:48:48 10° N 22:54:56 59° ENE 22:54:56 59° ENE
Cosmos 2333 Rocket 3.3 22:52:56 10° NW 22:57:19 34° W 22:57:19 34° W
Cosmos 1513 Rocket 4.5 23:07:07 82° W 23:07:07 82° W 23:13:34 10° N
ALOS 2 4.2 23:17:00 31° NW 23:17:00 31° NW 23:19:32 10° NNW
Lacrosse 4 Rocket 4.3 23:13:57 10° WNW 23:16:03 13° NW 23:18:07 10° N
Cosmos 1092 Rocket 4.3 23:10:40 10° N 23:16:44 54° ENE 23:16:44 54° ENE
Cosmos 2034 Rocket 3.9 23:19:27 83° NE 23:19:27 83° NE 23:25:34 10° N
Cosmos 2227 Rocket 2.7 23:22:00 52° NE 23:22:00 52° NE 23:26:24 10° NNE
Cosmos 2219 Rocket 3.9 23:22:58 10° NW 23:26:05 21° W 23:26:05 21° W
Meteor 1-12 Rocket 4.4 23:28:42 74° NE 23:28:42 74° NE 23:34:13 10° NNE
Resurs 1-4 Rocket 4.4 23:33:37 10° ENE 23:35:32 12° E 23:35:32 12° E
Cosmos 2082 4.2 23:48:47 52° ENE 23:48:47 52° ENE 23:53:14 10° NNE
Cosmos 1607 3.9 23:41:17 10° NW 23:47:26 81° NW 23:47:26 81° NW
Cosmos 1375 Rocket 4.5 23:48:19 83° ENE 23:48:19 83° ENE 23:54:46 10° NE
USA 229 DEB 4.2 23:53:16 42° E 23:53:16 42° E 23:58:50 10° NE
USA 229 4.3 23:53:24 42° E 23:53:24 42° E 23:58:55 10° NE
